{"data":{"norad_id":41836,"intl_designator":"2016-064A","name":"HIMAWARI-9","alt_names":[],"object_type":"PAYLOAD","status":"ACTIVE","operator":null,"country":"JPN","launch_date":"2016-11-02","launch_site_code":"TANSC","launch_vehicle":null,"mission":null,"orbit_class":"UNKNOWN","rcs_meters":38.791,"size_class":null,"mass_kg":null,"dimensions":null,"purposes":["comms","earth_obs"],"wikipedia_slug":null,"has_3d_model":false,"image_url":null,"decayed_at":null,"tle_current":{"epoch":"2026-09-19T21:12:38.679264Z","epoch_age_seconds":67686,"freshness":"FRESH","line1":"1 41836U 16064A   26262.88378101  .00000000  00000+0  00000+0 0  9991","line2":"2 41836   0.0166 151.6919 0001870  78.5847 227.4263  1.00270052 36163","mean_motion":1.00270052,"eccentricity":0.000187,"inclination_deg":0.0166,"raan_deg":151.6919,"arg_perigee_deg":78.5847,"mean_anomaly_deg":227.4263,"bstar":0,"rev_number":3616,"period_min":1436.1217245604,"perigee_km":35779.195895271,"apogee_km":35794.965686724,"semimajor_km":42165.217790998,"source":"CELESTRAK","updated_at":"2026-09-20T09:00:35.248509Z"}}}